Starlink 3243

operational
NORAD ID: 51116 Int'l Des: 2022-005 Owner: SPXS Country: US Constellation: starlink
LEOCIRCULAR

关于 Starlink 3243

正在加载描述...

实时位置

正在加载3D地球...

即将过境

高度历史

Altitude vs Time

uPlot chart will show altitude changes over time

两行轨道根数

1 51116U 22005N 26036.10252809 .00002475 00000-0 17350-3 0 9994
2 51116 53.2171 75.3834 0001516 89.4740 270.6426 15.08844986223951
Epoch: Feb 5, 2026 • Age: 13 hours

当前状态

高度 544.3 km
速度 7.59 km/s
星下点 -15.69°S, 58.81°E
发射日期 Jan 19, 2022
运行时间 4 years
类型 internet

技术详情

分类 Payload
质量 297.00 kg
干质量 275.00 kg
总质量 297.00 kg
长度 0.20 m
直径 2.80 m
跨度 9.00 m
形状 Box + pan
制造商 SPXS
平台类型 Starlink
阶段状态 In Orbit
所有者/国家 SPXS/US

大型星座

Loading constellations...